Zurück zum Katalog

HJS-6C

AktivWissenschaftVLEO
NORAD 63430·PAYLOAD·🇨🇳 China

Gestartet Apr 1, 2025 von Jiuquan Satellite Launch Center

Loading…

Nächste Überflüge (nächste 24 Stunden)

TLE

AktuellSource: Space-Track

Epoche: Sep 14, 2026, 14:47 UTC

1 63430U 25067C   26257.61607236  .00014660  00000-0  69914-3 0  9998
2 63430  54.9994 356.8963 0006610 165.8542 194.2664 15.19335926 81524

Verfolge HJS-6C in Echtzeit mit AllMySat

Download on the App Store